Location: Newark
(9.4667°S, 159.8167°E)
Time: 20:42:36
(UTC+00:00)

Hubble Space Telescope - Visible Passes

Search period start: 22 March 2019 00:00
Search period end: 01 April 2019 00:00
Orbit: 537 x 540 km, 28.5° (Epoch: 22 March)

Date Brightness Start Highest point End Pass type
(mag) Time Alt. Az. Time Alt. Az. Time Alt. Az.
22 Mar 2.9 17:59:40 15° N 18:01:34 20° NNE 18:04:40 10° E visible
23 Mar 2.3 17:50:20 26° N 17:51:05 28° NNE 17:54:39 10° E visible
24 Mar 1.9 17:40:59 38° NE 17:40:59 38° NE 17:44:29 10° E visible
25 Mar 2.3 17:31:34 35° E 17:31:34 35° E 17:34:11 10° ESE visible
26 Mar 3.0 17:22:06 23° ESE 17:22:06 23° ESE 17:23:47 10° ESE visible
26 Mar 2.5 18:57:51 10° WSW 19:00:57 20° SSW 19:04:04 10° SSE visible
27 Mar 3.6 17:12:35 15° SE 17:12:35 15° SE 17:13:17 10° SE visible
27 Mar 2.8 18:47:59 10° WSW 18:50:35 16° SSW 18:53:12 10° SSE visible
28 Mar 3.0 18:38:20 10° SW 18:40:14 13° SSW 18:42:10 10° S visible
29 Mar 3.2 18:29:06 10° SSW 18:29:55 10° SSW 18:30:43 10° S visible
